Location: Asheville, NC
(35.6000°N, 82.5500°W)
Time: 23:53:04

Envisat - Pass Details

Date: 08 March 2018
Orbit: 764 x 766 km, 98.2° (Epoch: 19 March)

Event Time Altitude Azimuth Distance (km) Brightness Sun altitude
Rises 21:14:40 0° 209° (SSW) 3,214 6.3 -33.4°
Reaches altitude 10° 21:17:52 10° 230° (SW) 2,293 5.7 -34.0°
Maximum altitude 21:20:53 16° 267° (W) 1,922 5.6 -34.6°
Drops below altitude 10° 21:23:55 10° 304° (NW) 2,301 6.2 -35.1°
Sets 21:27:09 0° 326° (NNW) 3,233 6.9 -35.7°
